Regional Weather Roundup
Issued by NWS Mt. Holly, NJ

Home | Current Version | Previous Version | Text Only | Print | Product List | Glossary On
Versions: 1 2 3 4 5 6 7 8 9 10 11 12 13 14 15 16 17 18 19 20 21 22 23 24 25 26 27 28 29 30 31 32 33 34 35 36 37 38 39 40 41 42 43 44 45 46 47 48 49 50
000
ASUS41 KPHI 230012
RWRPHI

REGIONAL WEATHER ROUNDUP
NATIONAL WEATHER SERVICE MOUNT HOLLY NJ
700 PM EST WED FEB 22 2017

NOTE:  "FAIR" INDICATES FEW OR NO CLOUDS BELOW 12,000 FEET WITH NO
SIGNIFICANT WEATHER AND/OR OBSTRUCTIONS TO VISIBILITY.

 * = STATION DOES NOT REPORT PRECIPITATION (E.G. RAIN, SNOW, ETC.)
        OR FOG.

NJZ015>026-230100-
SOUTHERN NEW JERSEY

CITY           SKY/WX    TMP DP  RH WIND       PRES   REMARKS
POMONA         CLEAR     50  45  83 CALM      29.93R
6HR MIN TEMP:  49; 6HR MAX TEMP:  61;

WILDWOOD*      CLOUDY    49  45  86 CALM      29.94S
MILLVILLE      CLEAR     46  45  96 CALM      29.93R
WRIGHTSTOWN    PTCLDY    50  43  77 CALM      29.90R
MOUNT HOLLY    PTCLDY    50  42  74 CALM      29.92S
TRENTON        PTCLDY    53  41  63 S3        29.90S
6HR MIN TEMP:  50; 6HR MAX TEMP:  58;


$$
NJZ001>014-230100-
NORTHERN NEW JERSEY

CITY           SKY/WX    TMP DP  RH WIND       PRES   REMARKS
SUSSEX         CLOUDY    45  39  79 CALM      29.89S
ANDOVER*         N/A     45  39  79 SW3       29.89S
MORRISTOWN     MOCLDY    54  39  58 SW6       29.90S
NEWARK         CLOUDY    54  41  61 S3        29.90S
TETERBORO      CLOUDY    54  41  61 S3        29.90R
CALDWELL       CLOUDY    55  39  54 CALM      29.90S
SOMERVILLE     PTCLDY    54  40  59 S3        29.89R
ALLAIRE*       PTCLDY    47  44  90 S3        29.93R
TOMS RIVER*    PTCLDY    51  48  89 S6        29.93R

$$
PAZ043-044-047-054-055-060>062-066>071-230100-
EASTERN PENNSYLVANIA

CITY           SKY/WX    TMP DP  RH WIND       PRES   REMARKS
PHILADELPHIA   MOCLDY    53  43  68 S6        29.92F
6HR MIN TEMP:  52; 6HR MAX TEMP:  58;

NORTH PHILA    CLEAR     54  43  66 CALM      29.92F
BLUE BELL*     CLOUDY    50  41  71 CALM      29.90S
DOYLESTOWN     CLOUDY    54  42  64 CALM      29.90R
QUAKERTOWN*    PTCLDY    52  39  62 CALM      29.91R
PERKASIE*      FAIR      54  41  62 S3        29.91R
POTTSTOWN      PTCLDY    54  41  61 CALM      29.92R
LANCASTER      CLOUDY    53  44  71 SE6       29.90R
COATESVILLE    MOCLDY    52  43  71 CALM      29.92S
READING        PTCLDY    56  43  61 CALM      29.89R
6HR MIN TEMP:  55; 6HR MAX TEMP:  62;

ALLENTOWN      PTCLDY    56  39  53 S3        29.90R
6HR MIN TEMP:  52; 6HR MAX TEMP:  61;

MOUNT POCONO   CLEAR     44  38  79 W6        29.88R
6HR MIN TEMP:  43; 6HR MAX TEMP:  55;

HAZLETON       CLOUDY    46  32  57 CALM      29.92S
LEHIGHTON      FAIR      46  37  71 CALM      29.90R
WILKES BARRE   PTCLDY    50  40  68 S3        29.88R

$$
DEZALL-MDZ008-012-015-019-020-230100-
DELAWARE AND EASTERN MARYLAND

CITY           SKY/WX    TMP DP  RH WIND       PRES   REMARKS
WILMINGTON     CLOUDY    49  46  90 S6        29.92S
6HR MIN TEMP:  49; 6HR MAX TEMP:  57;

DOVER          PTCLDY    47  47 100 S7        29.92S
GEORGETOWN     PTCLDY    53  49  86 SW6       29.94S
6HR MIN TEMP:  53; 6HR MAX TEMP:  64;

EASTON         CLEAR     54  48  82 S5        29.96F
ABERDEEN       MOCLDY    48  42  80 CALM      29.93S
PATUXENT       MOCLDY    56  54  93 S9        29.93S
OCEAN CITY     PTCLDY    48  46  93 CALM      29.96R
WALLOPS ISLAND CLOUDY    56  56 100 SW8       29.98R
CAMBRIDGE      PTCLDY    52  48  87 S6        29.94S
SALISBURY      CLOUDY    56  52  86 S7        29.95S

$$
PAZ001-021-NYZ056-072-MDZ011-DCZ001-230100-
OTHER NEARBY LOCATIONS

CITY           SKY/WX    TMP DP  RH WIND       PRES   REMARKS
HARRISBURG     MOCLDY    51  42  71 SE6       29.88S
STATE COLLEGE  CLEAR     57  41  54 W5        29.86R
WILLIAMSPORT   CLOUDY    51  37  58 E3        29.88S
BINGHAMTON     CLOUDY    52  41  66 SW7       29.85R
NEW YORK CITY  CLOUDY    53  42  66 S5        29.93S
BALTIMORE      CLOUDY    51  46  83 CALM      29.91R
WASHINGTON DC  MOCLDY    57  48  72 S7        29.92R

$$



USA.gov is the U.S. government's official web portal to all federal, state and local government web resources and services.